Theta_e
284 284 284 283 283 282 282 282 282 282 282 283 283 282 282 281 280 280 280 279 279 279
285 284 284 284 284 283 283 283 282 282 282 282 282 282 281 280 279 280 279 279 279 278
285 285 285 284 283 283 283 284 282 282 281 281 281 281 280 279 280 279 279 279 278 278
284 284 284 284 284 284 283 283 282 282 281 281 280 280 279 279 279 279 278 278 278 278
284 284 283 283 283 282 282 282 282 281 281 281 280 280 279 279 279 278 278 278 278 278
283 283 283 283 282 282 281 281 282 281 281 280 280 279 279 279 278 278 278 278 278 278
283 283 283 283 283 282 281 281 280 280 279 280 279 280 280 279 278 278 278 279 278 278
283 283 283 282 282 281 281 280 279 278 277 277 278 279 278 279 278 278 278 279 280 279
282 282 282 281 281 281 280 280 279 278 277 276 280 284 284 281 279 280 279 277 277 277
281 281 281 281 281 280 279 279 278 277 277 276 278 285 284 283 279 277 276 276 275 275
281 280 280 280 280 279 278 276 275 275 275 276 279 284 283 280 274 273 271 271 271 271
280 279 279 277 276 275 275 276 274 274 275 278 279 281 280 275 272 271 270 270 270 270
279 277 275 274 273 274 274 272 272 271 272 273 276 279 278 274 271 269 269 268 269 275
274 273 272 271 271 270 270 269 268 268 269 269 270 276 276 275 270 269 267 268 269 270
Wind_Speed
9 8 9 10 9 7 6 6 6 6 6 7 7 6 5 4 4 6 5 7 5 4
10 12 11 11 10 7 7 7 8 8 8 7 7 7 6 4 5 5 4 5 5 4
11 12 11 11 11 11 10 11 10 9 9 7 7 7 7 5 5 6 4 4 6 3
10 11 11 11 11 11 11 11 11 10 10 9 8 7 7 6 6 7 6 5 6 5
11 11 11 10 10 9 11 10 11 10 9 9 8 7 7 7 6 7 6 6 6 5
12 12 12 11 10 10 10 9 10 10 10 9 8 7 7 7 7 6 6 6 6 5
15 14 12 12 11 11 11 11 9 8 8 8 7 7 7 7 7 6 6 6 6 5
12 12 11 11 11 10 10 9 8 8 7 7 7 6 6 7 6 6 6 5 6 5
13 12 12 12 12 11 10 10 10 9 9 8 5 15 15 10 7 7 8 7 5 6
13 13 13 12 13 12 11 11 10 9 9 7 4 15 14 14 6 7 7 6 5 5
12 12 12 13 12 11 10 10 9 8 8 8 6 14 14 16 9 8 6 6 6 5
12 12 13 12 12 11 12 11 10 8 9 11 10 15 15 11 8 7 6 5 4 3
12 14 14 14 13 10 12 12 10 11 9 9 11 15 15 10 6 6 4 4 4 6
13 15 15 15 13 13 13 13 12 13 10 10 7 12 16 15 6 5 3 3 2 2
Wind_Direction
171 170 171 168 162 162 160 150 149 137 131 131 130 128 123 109 112 109 107 110 98 99
175 168 170 165 159 160 155 157 152 143 141 140 134 134 132 126 120 115 114 110 111 104
180 174 163 159 164 166 165 161 155 150 147 143 139 137 132 129 131 117 115 112 112 99
176 169 164 167 170 169 162 160 158 155 149 147 142 141 136 140 138 127 125 120 124 121
171 168 166 168 167 159 160 158 153 149 147 148 146 147 146 151 144 141 143 146 135 144
177 174 172 166 161 156 151 153 151 150 155 154 150 147 151 144 146 147 151 152 147 142
183 181 172 165 160 155 154 151 153 153 146 146 146 147 144 141 138 135 131 125 120 116
176 170 162 160 155 149 151 151 144 136 129 134 139 144 134 136 135 132 123 111 106 97
163 164 163 157 152 146 139 139 134 134 137 132 134 152 146 135 126 124 118 109 92 95
163 163 163 154 147 144 142 135 131 129 127 120 113 148 143 135 109 99 93 96 101 89
159 157 149 144 140 130 129 127 127 118 118 119 124 137 117 106 97 94 94 94 91 93
150 141 136 126 121 118 116 115 111 111 112 111 110 116 112 105 101 102 104 103 104 109
124 121 117 117 113 108 107 105 102 91 83 90 106 110 106 96 94 91 85 60 43 38
102 109 113 111 111 112 109 105 97 91 77 72 68 102 102 97 92 96 94 86 61 354